Estación de Azapa medio

Ultimos registro cada 15 minutos 53
Estación Fecha / Hora Temperatura Humedad Lluvia Velocidad Dirección Radiación Presion
53 Azapa medio 08-05-2026 13:00 20 68,3 0 1 62 119 970
52 Azapa medio 08-05-2026 12:45 20,2 67,8 0 1 60 145 970
51 Azapa medio 08-05-2026 12:30 20,1 69 0 1,2 56 150 970
50 Azapa medio 08-05-2026 12:15 20,2 69 0 1,2 57 143 970
49 Azapa medio 08-05-2026 12:00 20,3 69,6 0 1,4 57 164 970
48 Azapa medio 08-05-2026 11:45 20,1 67,8 0 0,8 55 179 970
47 Azapa medio 08-05-2026 11:30 19,6 69,2 0 0,8 55 167 970
46 Azapa medio 08-05-2026 11:15 19,4 70,1 0 1,1 57 132 970
45 Azapa medio 08-05-2026 11:00 19,2 69,4 0 0,9 57 118 970
44 Azapa medio 08-05-2026 10:45 18,9 69,5 0 0,3 54 102 970
43 Azapa medio 08-05-2026 10:30 18,8 72,1 0 0,3 55 92 970
42 Azapa medio 08-05-2026 10:15 18,6 75,6 0 0 52 90 970
41 Azapa medio 08-05-2026 10:00 18,3 77,6 0 0,1 56 90 970
40 Azapa medio 08-05-2026 09:45 18 79,5 0 0,1 60 76 970
39 Azapa medio 08-05-2026 09:30 17,8 81,3 0 0,3 60 67 970
38 Azapa medio 08-05-2026 09:15 17,5 82,2 0 0,2 55 62 970
37 Azapa medio 08-05-2026 09:00 17,4 82,6 0 0,1 51 52 970
36 Azapa medio 08-05-2026 08:45 17,2 83,2 0 0,3 48 37 969
35 Azapa medio 08-05-2026 08:30 17,2 83,2 0 0,7 46 31 969
34 Azapa medio 08-05-2026 08:15 17,2 83,1 0 0,1 46 21 969
33 Azapa medio 08-05-2026 08:00 17 83,6 0 0 0 16 969
32 Azapa medio 08-05-2026 07:45 16,9 84,3 0 0 0 12 969
31 Azapa medio 08-05-2026 07:30 16,8 84,1 0 0 0 7 969
30 Azapa medio 08-05-2026 07:15 16,8 84,3 0 0 0 1 969
29 Azapa medio 08-05-2026 07:00 16,7 84,2 0 0 0 0 969
28 Azapa medio 08-05-2026 06:45 16,8 84,3 0 0 0 0 969
27 Azapa medio 08-05-2026 06:30 16,8 84 0 0 0 0 969
26 Azapa medio 08-05-2026 06:15 16,8 83,7 0 0 0 0 969
25 Azapa medio 08-05-2026 06:00 16,8 83,8 0 0 0 0 969
24 Azapa medio 08-05-2026 05:45 16,8 83,6 0 0 0 0 969
23 Azapa medio 08-05-2026 05:30 16,8 83,5 0 0 0 0 969
22 Azapa medio 08-05-2026 05:15 16,8 83,3 0 0 0 0 969
21 Azapa medio 08-05-2026 05:00 16,8 82,9 0 0 0 0 969
20 Azapa medio 08-05-2026 04:45 16,8 82,9 0 0 0 0 969
19 Azapa medio 08-05-2026 04:30 16,9 82,7 0 0 0 0 969
18 Azapa medio 08-05-2026 04:15 16,9 82,5 0 0 0 0 969
17 Azapa medio 08-05-2026 04:00 17 82,2 0 0 0 0 969
16 Azapa medio 08-05-2026 03:45 17 82 0 0 0 0 970
15 Azapa medio 08-05-2026 03:30 17 81,9 0 0 0 0 970
14 Azapa medio 08-05-2026 03:15 17,1 81,8 0 0 42 0 970
13 Azapa medio 08-05-2026 03:00 17,2 81,4 0 0 45 0 970
12 Azapa medio 08-05-2026 02:45 17,3 80,8 0 0 45 0 970
11 Azapa medio 08-05-2026 02:30 17,4 80,4 0 0 0 0 970
10 Azapa medio 08-05-2026 02:15 17,4 80,1 0 0 0 0 970
9 Azapa medio 08-05-2026 02:00 17,4 79,7 0 0 0 0 970
8 Azapa medio 08-05-2026 01:45 17,5 79,3 0 0 43 0 970
7 Azapa medio 08-05-2026 01:30 17,4 78,9 0 0,1 43 0 970
6 Azapa medio 08-05-2026 01:15 17,4 78,1 0 0,6 42 0 970
5 Azapa medio 08-05-2026 01:00 17,5 77 0 0,2 41 0 970
4 Azapa medio 08-05-2026 00:45 17,5 76,5 0 0,2 40 0 970
3 Azapa medio 08-05-2026 00:30 17,5 76 0 0,3 38 0 970
2 Azapa medio 08-05-2026 00:15 17,6 75,7 0 0,2 40 0 970
1 Azapa medio 08-05-2026 00:00 17,6 75,8 0 0 40 0 970